[[{"header":{"parameterUnit":"m.s-1","parameterCategory":1,"la1":30.2991,"la2":30.254,"lo1":-89.0895,"lo2":-89.0444,"dy":0.0017,"dx":0.0017,"nx":28,"ny":28,"refTime":"2026-03-05T03:00:00:Z","depth":0,"parameterNumber":2,"parameterNumberName":"U-component_of_WINDS"},"data":[0,0,0,0,0,0,0,0,0,0,0,0,0,0,0,0,0,0,0,0,0,0,0,0,0,0,0,0,0,0,0,0,0,0,0,0,0,0,0,0,0,0,0,0,0,0,0,0,0,0,0,0,0,0,0,0,0,0,-2.9271,-2.9271,0,-2.9267,-2.9267,-2.9267,-2.9186,-2.9184,-2.9182,-2.918,-2.9181,-2.9183,-2.9185,0,0,0,0,0,0,0,0,0,0,0,0,0,-2.9215,-2.9217,-2.9271,-2.9271,-2.9271,-2.9267,-2.9267,-2.9267,-2.9187,-2.9184,-2.9182,-2.9179,-2.9181,-2.9183,-2.9185,0,0,0,0,0,0,0,0,0,0,0,0,0,-2.9228,-2.9217,-2.9271,-2.923,-2.9226,-2.9267,-2.9267,-2.9267,-2.9187,-2.9184,-2.9181,-2.9178,-2.918,-2.9183,-2.9186,-2.9266,0,0,-2.9195,-2.9196,0,0,0,0,0,0,0,0,-2.9228,-2.9231,-2.9236,-2.9233,-2.9229,-2.9224,-2.9247,-2.9267,-2.9188,-2.9202,-2.918,-2.9177,-2.9198,-2.92,-2.9206,-2.9266,-2.9266,-2.9195,-2.9197,-2.9198,-2.9199,0,0,0,0,0,0,0,-2.9227,-2.923,-2.9269,-2.9236,-2.9232,-2.9214,-2.9213,-2.9251,-2.9218,-2.9201,-2.9195,-2.9195,-2.9196,-2.9203,-2.9205,-2.9266,-2.9195,-2.9197,-2.9199,-2.92,-2.9395,-2.9399,0,0,0,0,0,0,-2.9231,-2.923,-2.9269,-2.9269,-2.9221,-2.9218,-2.9216,-2.9229,-2.9217,-2.9212,-2.9198,-2.9192,-2.92,-2.9202,-2.9205,-2.93,-2.9198,-2.9201,-2.9202,-2.9392,-2.9396,-2.94,0,0,0,0,0,0,-2.923,-2.9235,-2.9269,-2.9248,-2.9251,-2.9222,-2.9237,-2.923,-2.9237,-2.9215,-2.9209,-2.9211,-2.9197,-2.9201,-2.9252,-2.9298,-2.9202,-2.9205,-2.9388,-2.9393,-2.9398,-2.9489,0,0,0,0,0,0,-2.9229,-2.9235,-2.9264,-2.9249,-2.9252,-2.9314,-2.924,-2.9232,-2.9242,-2.9234,-2.9226,-2.9222,-2.9195,-2.9248,-2.9255,-2.9301,-2.9207,-2.9383,-2.939,-2.9396,-2.9482,-2.9496,-2.9509,0,0,0,0,0,-2.9227,-2.929,-2.9265,-2.9271,-2.9287,-2.9317,-2.9319,-2.9286,-2.9246,-2.9276,-2.9262,-2.9222,-2.9293,-2.9254,-2.9261,-2.9308,-2.938,-2.9388,-2.9396,-2.9475,-2.9494,-2.9509,0,0,0,0,0,0,-2.9311,-2.9287,-2.926,-2.9319,-2.9321,-2.9304,-2.9339,-2.9306,-2.932,-2.9312,-2.9272,-2.9271,-2.9328,-2.9324,-2.9281,-2.9387,-2.933,-2.9339,-2.9388,-2.9405,-2.9418,-2.9418,-2.9209,0,0,0,0,0,-2.9337,-2.9362,-2.934,-2.9395,-2.9397,-2.9369,-2.938,-2.9355,-2.9355,-2.9356,-2.9346,-2.9349,-2.9373,-2.9389,-2.9408,-2.9481,-2.9479,-2.9518,-2.9532,-2.9543,-2.9552,-2.9592,-2.961,-2.9425,-2.9425,-2.9425,0,0,-2.939,-2.938,-2.9398,-2.9411,-2.9409,-2.9438,-2.9369,-2.9402,-2.9424,-2.9361,-2.9408,-2.9402,-2.9404,-2.9466,-2.9493,-2.9464,-2.9603,-2.9553,-2.9562,-2.9564,-2.9602,-2.9619,-2.9635,-2.943,-2.9429,-2.9428,0,0,-2.9501,-2.9495,-2.954,-2.9541,-2.9538,-2.952,-2.9531,-2.952,-2.9512,-2.9559,-2.9514,-2.954,-2.958,-2.9584,-2.9591,-2.9708,-2.9672,-2.9716,-2.9788,-2.9828,-2.9842,-2.9855,-2.9898,-2.9913,-2.9724,-2.9725,-2.9725,0,-2.9567,-2.9606,-2.9569,-2.9605,-2.9613,-2.9558,-2.9606,-2.9608,-2.9614,-2.9622,-2.9589,-2.964,-2.9637,-2.9701,-2.973,-2.9737,-2.975,-2.9715,-2.9843,-2.9855,-2.9867,-2.9907,-2.9923,-2.973,-2.9729,-2.9729,-2.9728,0,-2.9689,-2.9717,-2.9755,-2.9761,-2.9774,-2.9815,-2.9787,-2.9805,-2.978,-2.9766,-2.9816,-2.9811,-2.983,-2.9843,-2.9819,-2.9905,-2.9887,-2.9849,-2.9791,-2.989,-2.9928,-2.9943,-2.9737,-2.9736,-2.9734,-2.9733,0,0,-2.985,-2.9836,-2.9851,-2.9854,-2.9849,-2.9872,-2.9913,-2.993,-2.9948,-2.9955,-2.9989,-3.0026,-2.9992,-3.0,-2.9976,-3.0012,-3.0106,-2.9969,-2.9969,-2.9996,-3.0203,-3.0232,-3.025,-3.0083,-3.0086,-3.0088,-3.0203,0,-2.9958,-3.0024,-2.9994,-3.0065,-3.0092,-3.0042,-3.0078,-3.0081,-3.007,-3.0093,-3.0082,-3.0109,-3.0061,-3.0066,-3.0098,-3.0088,-3.0148,-3.0079,-3.0117,-3.0119,-3.0118,-3.0269,-3.0299,-3.0407,-3.0218,-3.022,-3.0222,0,-3.0091,-3.0103,-3.0177,-3.0169,-3.018,-3.0213,-3.0228,-3.025,-3.0254,-3.0243,-3.0254,-3.0223,-3.0266,-3.0209,-3.0268,-3.0223,-3.0237,-3.0235,-3.0238,-3.024,-3.0176,-3.0276,-3.0441,-3.0458,-3.0244,-3.0243,-3.0241,0,-3.0202,-3.0237,-3.0286,-3.029,-3.0283,-3.0308,-3.0306,-3.0306,-3.032,-3.0334,-3.0343,-3.0363,-3.0374,-3.0391,-3.0368,-3.0328,-3.0432,-3.0372,-3.0426,-3.0427,-3.045,-3.0449,-3.062,-3.0459,-3.0459,-3.0459,-3.0459,0,-3.0325,-3.0373,-3.0336,-3.0367,-3.0419,-3.0386,-3.044,-3.0433,-3.0434,-3.0464,-3.0423,-3.0453,-3.042,-3.0448,-3.043,-3.0483,-3.0489,-3.0483,-3.0478,-3.0487,-3.0487,-3.0495,-3.0487,-3.0463,-3.0462,-3.0461,-3.0461,0,-3.0458,-3.0435,-3.0485,-3.0475,-3.0474,-3.0513,-3.0505,-3.0535,-3.0522,-3.056,-3.0568,-3.0548,-3.0579,-3.0557,-3.0588,-3.0576,-3.0647,-3.0631,-3.0645,-3.0641,-3.0696,-3.0692,-3.0878,-3.0902,-3.0727,-3.0728,-3.073,0,-3.0537,-3.0573,-3.0567,-3.0583,-3.0584,-3.0611,-3.0625,-3.0595,-3.0611,-3.062,-3.0649,-3.0675,-3.0695,-3.0747,-3.0737,-3.0761,-3.0746,-3.081,-3.0749,-3.0758,-3.0748,-3.0746,-3.075,-3.0822,-3.0824,-3.0825,-3.0827,0,-3.0682,-3.067,-3.069,-3.0708,-3.0725,-3.0738,-3.0747,-3.0764,-3.0734,-3.0755,-3.0785,-3.0801,-3.0832,-3.0861,-3.0881,-3.0882,-3.0851,-3.0846,-3.086,-3.0869,-3.0876,-3.0874,-3.0678,-3.0842,-3.084,-3.0839,-3.0838,-3.0838,-3.0791,-3.082,-3.0821,-3.0846,-3.0851,-3.0861,-3.0889,-3.088,-3.0903,-3.0926,-3.0908,-3.0944,-3.0951,-3.0975,-3.0981,-3.1011,-3.0985,-3.1005,-3.101,-3.1015,-3.1024,-3.0872,-3.1015,-3.1014,-3.1014,-3.1013,-3.1013,0,-3.0933,-3.0932,-3.0955,-3.097,-3.0991,-3.0958,-3.0969,-3.0989,-3.1021,-3.1029,-3.1049,-3.1086,-3.1114,-3.1107,-3.1133,-3.1159,-3.1145,-3.1166,-3.1164,-3.1165,-3.1045,-3.103,-3.1177,-3.1177,-3.1177,-3.1177,-3.1177,-3.1177,-3.101,-3.1059,-3.1048,-3.11,-3.1099,-3.1133,-3.1142,-3.1153,-3.1159,-3.1201,-3.1224,-3.1219,-3.1222,-3.1248,-3.1274,-3.1271,-3.1283,-3.131,-3.1303,-3.119,-3.1174,-3.1158,-3.1144,-3.1313,-3.1313,-3.1421,-3.1422,-3.1422]},{"header":{"parameterUnit":"m.s-1","parameterCategory":1,"la1":30.2991,"la2":30.254,"lo1":-89.0895,"lo2":-89.0444,"dy":0.0017,"dx":0.0017,"nx":28,"ny":28,"refTime":"2026-03-05T03:00:00:Z","depth":0,"parameterNumber":3,"parameterNumberName":"V-component_of_WINDS"},"data":[0,0,0,0,0,0,0,0,0,0,0,0,0,0,0,0,0,0,0,0,0,0,0,0,0,0,0,0,0,0,0,0,0,0,0,0,0,0,0,0,0,0,0,0,0,0,0,0,0,0,0,0,0,0,0,0,0,0,0.3827,0.3828,0,0.3858,0.3858,0.3859,0.3922,0.3923,0.3925,0.3926,0.3956,0.3955,0.3955,0,0,0,0,0,0,0,0,0,0,0,0,0,0.3824,0.3824,0.3827,0.3828,0.3828,0.3858,0.3858,0.3859,0.3922,0.3923,0.3925,0.3926,0.3956,0.3955,0.3955,0,0,0,0,0,0,0,0,0,0,0,0,0,0.3837,0.3824,0.3827,0.3863,0.3867,0.3858,0.3858,0.3859,0.3922,0.3923,0.3925,0.3927,0.3956,0.3955,0.3955,0.3913,0,0,0.3953,0.3953,0,0,0,0,0,0,0,0,0.3836,0.3837,0.3857,0.3861,0.3865,0.3888,0.3868,0.3877,0.3921,0.3901,0.3926,0.3928,0.3931,0.3933,0.3935,0.3914,0.3915,0.3953,0.3952,0.3952,0.3952,0,0,0,0,0,0,0,0.3835,0.3836,0.3839,0.3858,0.3862,0.3878,0.3882,0.387,0.3905,0.3903,0.3907,0.391,0.3934,0.3935,0.3936,0.3916,0.3953,0.3952,0.3952,0.3952,0.3865,0.3864,0,0,0,0,0,0,0.3829,0.3835,0.3838,0.384,0.3855,0.3876,0.3881,0.3879,0.3905,0.3911,0.3908,0.3913,0.3935,0.3936,0.3937,0.3892,0.3952,0.3952,0.3951,0.3867,0.3865,0.3863,0,0,0,0,0,0,0.3829,0.3829,0.3837,0.3839,0.3841,0.3874,0.3871,0.3878,0.3879,0.391,0.3916,0.3903,0.3937,0.3938,0.3919,0.3893,0.3951,0.3951,0.387,0.3867,0.3864,0.3799,0,0,0,0,0,0,0.3828,0.3828,0.3812,0.3838,0.3841,0.3818,0.387,0.3877,0.3878,0.3885,0.3906,0.3912,0.3938,0.392,0.3918,0.3894,0.395,0.3872,0.3868,0.3865,0.3804,0.3794,0.3786,0,0,0,0,0,0.3828,0.3792,0.3811,0.3811,0.3822,0.3817,0.3818,0.385,0.3876,0.3861,0.3881,0.3911,0.3896,0.3917,0.3916,0.3891,0.3874,0.3869,0.3865,0.3807,0.3796,0.3786,0,0,0,0,0,0,0.3761,0.3796,0.3818,0.3789,0.3799,0.3827,0.3809,0.3836,0.3839,0.3845,0.3883,0.3888,0.3864,0.3876,0.3898,0.3853,0.389,0.3885,0.3846,0.3836,0.3827,0.3825,0.395,0,0,0,0,0,0.3743,0.3736,0.3767,0.3738,0.3743,0.3775,0.3774,0.3797,0.381,0.3814,0.3833,0.3843,0.3842,0.3839,0.3839,0.3805,0.3812,0.3788,0.3779,0.3772,0.3768,0.3753,0.3743,0.3849,0.3849,0.3849,0,0,0.3706,0.3724,0.3717,0.3726,0.3737,0.3729,0.3778,0.3767,0.3763,0.3812,0.3797,0.381,0.3825,0.38,0.3789,0.3808,0.374,0.3766,0.376,0.376,0.3748,0.3738,0.3729,0.3846,0.3846,0.3847,0,0,0.3634,0.3646,0.3625,0.3636,0.3653,0.3674,0.3669,0.3694,0.3705,0.369,0.3728,0.3723,0.3718,0.3728,0.3732,0.3666,0.3695,0.3665,0.362,0.3605,0.3597,0.359,0.3568,0.356,0.3661,0.366,0.366,0,0.3585,0.3575,0.3611,0.3599,0.3602,0.3648,0.3628,0.3636,0.3651,0.3653,0.3674,0.3671,0.3684,0.3663,0.3647,0.3648,0.3644,0.3663,0.3596,0.3589,0.3583,0.3562,0.3554,0.3657,0.3657,0.3658,0.3658,0,0.3516,0.3509,0.3489,0.3505,0.3506,0.3489,0.3523,0.352,0.3544,0.3563,0.3549,0.3566,0.3571,0.3568,0.359,0.355,0.3562,0.3589,0.3627,0.3568,0.355,0.3543,0.3651,0.3653,0.3654,0.3655,0,0,0.3401,0.3438,0.3431,0.3439,0.3462,0.3457,0.3444,0.345,0.3448,0.3457,0.3447,0.3443,0.347,0.3474,0.3498,0.3485,0.3435,0.3515,0.3516,0.3501,0.3394,0.3374,0.3365,0.3454,0.3453,0.3452,0.3393,0,0.3336,0.3315,0.3348,0.332,0.3315,0.3359,0.3348,0.3361,0.3379,0.3378,0.3399,0.3396,0.3429,0.3433,0.3422,0.3443,0.3414,0.3448,0.3447,0.3446,0.3442,0.3355,0.3334,0.3277,0.3386,0.3385,0.3384,0,0.3256,0.3264,0.3236,0.3263,0.3262,0.3251,0.326,0.3258,0.3274,0.3289,0.3295,0.3325,0.3314,0.3351,0.3338,0.336,0.3361,0.3372,0.337,0.3372,0.3412,0.3355,0.326,0.3252,0.3373,0.3374,0.3375,0,0.3178,0.3181,0.3165,0.3171,0.3201,0.3193,0.3205,0.3224,0.3226,0.3234,0.3236,0.3242,0.3246,0.3251,0.3281,0.3305,0.3265,0.3304,0.3278,0.3277,0.3268,0.3268,0.3172,0.3266,0.3267,0.3267,0.3267,0,0.3102,0.3084,0.3131,0.3121,0.3102,0.314,0.312,0.3137,0.3153,0.3148,0.3187,0.3181,0.3222,0.3221,0.3245,0.3231,0.3232,0.3244,0.3251,0.3241,0.324,0.3243,0.3248,0.3265,0.3265,0.3266,0.3266,0,0.3012,0.3042,0.3028,0.3059,0.3067,0.3051,0.3078,0.3071,0.3093,0.3086,0.3086,0.312,0.3122,0.3153,0.316,0.3176,0.3153,0.3167,0.3148,0.3153,0.3126,0.3128,0.3029,0.3019,0.3119,0.3118,0.3117,0,0.2961,0.2949,0.2979,0.2979,0.299,0.2988,0.2992,0.3029,0.303,0.3049,0.304,0.3045,0.305,0.305,0.3076,0.3082,0.3096,0.3062,0.3098,0.3089,0.3098,0.3099,0.3098,0.3054,0.3053,0.3052,0.3051,0,0.287,0.2887,0.289,0.2899,0.2902,0.2911,0.2922,0.292,0.2961,0.2961,0.2963,0.2968,0.2976,0.2981,0.2992,0.3005,0.3035,0.3039,0.3034,0.3024,0.3015,0.3021,0.3128,0.3041,0.3042,0.3043,0.3044,0.3044,0.2799,0.2791,0.2811,0.2815,0.2827,0.2837,0.2833,0.2855,0.2858,0.2868,0.289,0.2889,0.2908,0.2927,0.2937,0.2938,0.2955,0.2947,0.2945,0.2943,0.2938,0.3014,0.294,0.294,0.294,0.294,0.2941,0,0.2711,0.2727,0.273,0.2745,0.2748,0.2777,0.2791,0.2792,0.2791,0.2806,0.2812,0.2815,0.282,0.2847,0.2855,0.285,0.2864,0.2851,0.2853,0.2855,0.2921,0.2926,0.284,0.284,0.284,0.284,0.284,0.284,0.2666,0.2654,0.2673,0.2668,0.2684,0.2684,0.2691,0.2701,0.2713,0.2716,0.2721,0.2738,0.2759,0.2769,0.2776,0.2783,0.2785,0.2768,0.278,0.2841,0.285,0.286,0.2864,0.2767,0.2767,0.2715,0.2714,0.2714]}]]